Home > Time Zones > World Clock > Weather > Yemen > Sana > Past weeks

Flag for Yemen Weather past 2 weeks in Sana, Yemen

Now
73 °F

Partly sunny.


Feels Like: 74 °F
Forecast: 59 / 78 °F
Wind: 5 mph from Northeast

Location: Sana'A Airport


UV Index: 10 (Very high)

Visibility: N/A


Pressure: 30.39 "Hg

Humidity: 11%

Dew point: 16 °F

Location of SanaLocation

Historic Weather in Sana

°F

Sana temperature yesterday

Maximum temperature yesterday: 82 °F (at 2:00 PM)
Minimum temperature yesterday: 59 °F (at 4:00 AM)
Average temperature yesterday: 71 °F

Past Weeks' High & Low Weather Summary

 TemperatureHumidityPressure
High84 °F (Apr 16, 3:00 PM)68% (Apr 12, 4:00 AM)30.42 "Hg (Apr 12, 4:00 AM)
Low52 °F (Apr 13, 6:00 AM)7% (Apr 18, 6:00 PM)30.18 "Hg (Apr 15, 9:00 PM)
Average69 °F22%30.31 "Hg
* Reported Apr 8 10:00 AM — Apr 23 10:00 AM, Sana, Weather by CustomWeather, © 2014

Note: Actual official high and low records may vary slightly from our data, if they occured in-between our weather recording intervals... More about our weather records

Advertising

Historic Weather Conditions — Data for Previous 24 hours

 ConditionsComfort  
Time TempWeatherWind HumidityBarometerVisibility
10:00 AM
Apr 23
73 °FPartly sunny.5 mph11%30.39 "HgN/A
9:00 AM70 °FPartly sunny.3 mph11%30.39 "HgN/A
8:00 AM66 °FScattered clouds.3 mph11%30.39 "HgN/A
7:00 AM59 °FPassing clouds.3 mph17%30.36 "HgN/A
6:00 AM55 °FSunny.5 mph18%30.36 "Hg10 mi
5:00 AM59 °FClear.No wind17%30.33 "Hg10 mi
4:00 AM63 °FClear.5 mph11%30.33 "Hg10 mi
3:00 AM63 °FClear.No wind14%30.33 "Hg10 mi
2:00 AM66 °FClear.No wind14%30.33 "Hg10 mi
1:00 AM68 °FPassing clouds.3 mph10%30.36 "HgN/A
12:00 AM68 °FPassing clouds.2 mph13%30.36 "HgN/A
11:00 PM
Apr 22
70 °FPassing clouds.7 mph13%30.36 "HgN/A
10:00 PM72 °FPassing clouds.7 mph14%30.36 "HgN/A
9:00 PM73 °FPassing clouds.5 mph14%30.36 "HgN/A
8:00 PM73 °FPassing clouds.9 mph15%30.33 "HgN/A
7:00 PM73 °FPassing clouds.13 mph15%30.30 "HgN/A
6:00 PM75 °FPartly sunny.13 mph15%30.30 "HgN/A
5:00 PM79 °FPartly sunny.15 mph13%30.27 "HgN/A
4:00 PM79 °FPartly sunny.14 mph13%30.27 "HgN/A
3:00 PM81 °FPartly sunny.10 mph12%30.24 "HgN/A
2:00 PM82 °FScattered clouds.5 mph11%30.27 "HgN/A
1:00 PM81 °FPassing clouds.7 mph12%30.30 "HgN/A
12:00 PM79 °FScattered clouds.9 mph12%30.33 "HgN/A
11:00 AM79 °FSunny.8 mph12%30.33 "Hg10 mi
10:00 AM77 °FSunny.12 mph13%30.33 "Hg10 mi
Weather by CustomWeather, © 2014

See weather overview